Baltimore Martin, MD

5:53 PM EDT on July 20, 2017 (GMT -0400)
Martin State

Weather History for KMTN - December, 2012

Change the Weather History Date:

Tuesday, December 11, 2012

  Actual Average Record
Temperature  
Mean Temperature 47 °F -  
Max Temperature 59 °F 45 °F 59 °F (2012)
Min Temperature 35 °F 32 °F 24 °F (2005)
Degree Days  
Heating Degree Days 18    
Moisture  
Dew Point 40 °F    
Average Humidity 79    
Maximum Humidity 100    
Minimum Humidity 50    
Precipitation  
Precipitation 0.08 in - - ()
Sea Level Pressure  
Sea Level Pressure 29.94 in    
Wind  
Wind Speed 8 mph (WNW)    
Max Wind Speed 17 mph    
Max Gust Speed 33 mph    
Visibility 10 miles    
Events Rain    
Averages and records for this station are not official NWS values.
T = Trace of Precipitation, MM = Missing Value Source: NWS Daily Summary

Daily Weather History Graph

Daily Weather History Graph

Search for Another Location

Airport or City:

Trip Planner

Search our weather history database for the weather conditions in past years. The results will help you decide how hot, cold, wet, or windy it might be!

Date:

Astronomy

Dec. 11, 2012 Rise Set
Actual Time 7:15 AM EST 4:42 PM EST
Civil Twilight 6:45 AM EST 5:12 PM EST
Nautical Twilight 6:12 AM EST 5:46 PM EST
Astronomical Twilight 5:39 AM EST 6:18 PM EST
Moon 5:08 AM EST (12/11) 3:19 PM EST (12/11)
Length of Visible Light 10h 26m
Length of Day
9h 26m
Waning Crescent, 4% of the Moon is Illuminated
Dec 11
Waning Crescent
Dec 13
New
Dec 20
First Quarter
Dec 28
Full
Jan 4
Last Quarter

Hourly Weather History & Observations

Time (EST) Temp. Windchill Dew Point Humidity Pressure Visibility Wind Dir Wind Speed Gust Speed Precip Events Conditions
12:15 AM 57.2 °F - 57.2 °F 100% 29.62 in 10.0 mi SW 4.6 mph - N/A   Scattered Clouds
12:39 AM 59.0 °F - 59.0 °F 100% 29.65 in 10.0 mi West 6.9 mph - N/A   Mostly Cloudy
1:00 AM 59.0 °F - 59.0 °F 100% 29.67 in 10.0 mi West 9.2 mph - N/A   Overcast
1:21 AM 51.8 °F - 51.8 °F 100% 29.70 in 10.0 mi WNW 17.3 mph 33.4 mph N/A   Overcast
1:42 AM 51.8 °F - 50.0 °F 94% 29.71 in 10.0 mi NW 11.5 mph 16.1 mph N/A   Overcast
2:03 AM 50.0 °F - 46.4 °F 87% 29.73 in 10.0 mi WNW 13.8 mph 20.7 mph N/A   Overcast
2:24 AM 50.0 °F - 44.6 °F 82% 29.72 in 10.0 mi NW 9.2 mph - N/A   Overcast
2:45 AM 50.0 °F - 44.6 °F 82% 29.74 in 10.0 mi NW 12.7 mph 17.3 mph N/A Rain Rain
3:06 AM 50.0 °F - 44.6 °F 82% 29.75 in 10.0 mi WNW 10.4 mph 16.1 mph 0.01 in Rain Rain
3:51 AM 46.4 °F 41.5 °F 44.6 °F 93% 29.81 in 7.0 mi West 10.4 mph - 0.04 in Rain Light Rain
4:12 AM 46.4 °F 42.4 °F 44.6 °F 93% 29.82 in 7.0 mi West 8.1 mph - 0.02 in Rain Light Rain
4:33 AM 46.4 °F 41.1 °F 42.8 °F 87% 29.82 in 10.0 mi WNW 11.5 mph - 0.03 in   Overcast
4:54 AM 44.6 °F 39.7 °F 42.8 °F 93% 29.84 in 10.0 mi WNW 9.2 mph - 0.03 in   Overcast
5:15 AM 44.6 °F 40.7 °F 42.8 °F 93% 29.85 in 10.0 mi WNW 6.9 mph - 0.01 in Rain Rain
5:27 AM 44.6 °F 40.7 °F 42.8 °F 93% 29.85 in 10.0 mi WNW 6.9 mph - 0.01 in Rain Light Rain
5:45 AM 46.4 °F 43.5 °F 42.8 °F 87% 29.86 in 10.0 mi NW 5.8 mph - N/A   Overcast
6:50 AM 46.4 °F 42.9 °F 42.8 °F 87% 29.89 in 10.0 mi NW 6.9 mph - N/A   Mostly Cloudy
7:45 AM 44.6 °F 39.2 °F 39.2 °F 81% 29.94 in 10.0 mi WNW 10.4 mph - N/A   Mostly Cloudy
8:45 AM 46.4 °F 41.1 °F 39.2 °F 76% 29.95 in 10.0 mi WNW 11.5 mph - N/A   Mostly Cloudy
9:45 AM 46.4 °F 43.5 °F 39.2 °F 76% 29.98 in 10.0 mi NW 5.8 mph - N/A   Mostly Cloudy
10:45 AM 48.2 °F - 37.4 °F 66% 30.00 in 10.0 mi WNW 3.5 mph - N/A   Mostly Cloudy
11:45 AM 48.2 °F - 37.4 °F 66% 30.00 in 10.0 mi WNW 6.9 mph - N/A   Mostly Cloudy
12:45 PM 50.0 °F - 37.4 °F 62% 29.99 in 10.0 mi NW 8.1 mph - N/A   Mostly Cloudy
1:55 PM 50.0 °F - 32.0 °F 50% 30.02 in 10.0 mi NW 11.5 mph - N/A   Overcast
2:45 PM 50.0 °F - 32.0 °F 50% 30.03 in 10.0 mi NW 10.4 mph - N/A   Mostly Cloudy
3:45 PM 48.2 °F - 32.0 °F 54% 30.05 in 10.0 mi WNW 11.5 mph - N/A   Mostly Cloudy
4:45 PM 46.4 °F 41.9 °F 30.2 °F 53% 30.09 in 10.0 mi NW 9.2 mph - N/A   Mostly Cloudy
5:45 PM 46.4 °F 42.9 °F 30.2 °F 53% 30.13 in 10.0 mi NW 6.9 mph - N/A   Mostly Cloudy
7:55 PM 41.0 °F 39.0 °F 28.4 °F 61% 30.19 in 10.0 mi NW 3.5 mph - N/A   Partly Cloudy
8:45 PM 42.8 °F 41.1 °F 28.4 °F 57% 30.20 in 10.0 mi NW 3.5 mph - N/A   Partly Cloudy
9:45 PM 37.4 °F 33.8 °F 30.2 °F 75% 30.22 in 10.0 mi WNW 4.6 mph - N/A   Partly Cloudy
10:15 PM 35.6 °F - 32.0 °F 87% 30.22 in 10.0 mi Calm Calm - N/A   Clear
10:36 PM 37.4 °F 33.8 °F 30.2 °F 75% 30.23 in 10.0 mi WNW 4.6 mph - N/A   Clear
10:57 PM 37.4 °F 34.9 °F 30.2 °F 75% 30.24 in 10.0 mi WNW 3.5 mph - N/A   Clear
11:18 PM 37.4 °F 34.9 °F 32.0 °F 81% 30.24 in 10.0 mi WNW 3.5 mph - N/A   Clear